Kosmos-2400

operational
NORAD ID: 27868 Int'l Des: 2003-037 Owner: KVR Country: RU
LEOCIRCULARPOLAR

关于 Kosmos-2400

正在加载描述...

实时位置

正在加载3D地球...

即将过境

高度历史

Altitude vs Time

uPlot chart will show altitude changes over time

两行轨道根数

1 27868U 03037A 26062.16487780 -.00000062 00000-0 -50458-3 0 9996
2 27868 82.4700 36.3208 0020449 289.1888 70.6980 12.45187507 24342
Epoch: Mar 3, 2026 • Age: 14 hours

当前状态

高度 1496.2 km
速度 7.12 km/s
星下点 39.85°N, 33.81°E
发射日期 Aug 19, 2003
运行时间 22.5 years
类型 other

技术详情

分类 Payload
质量 225.00 kg
干质量 225.00 kg
总质量 225.00 kg
长度 1.60 m
直径 0.80 m
跨度 7.00 m
形状 Cyl + Ant
制造商 NPOPMR
平台类型 Strela-3
阶段状态 In Orbit
所有者/国家 KVR/RU

大型星座

Loading constellations...